Location: Gaast
(52.9002°N, 5.8891°E)
Time: 03:10:22
(UTC+00:00)

NOAA 6 - Pass Details

Date: 18 November 2025
Orbit: 766 x 782 km, 98.6° (Epoch: 15 December)

Event Time Altitude Azimuth Distance (km) Brightness Sun altitude
Rises 17:19:49 0° 140° (SE) 3,255 7.0 -15.1°
Reaches altitude 10° 17:22:13 10° 134° (SE) 2,330 6.2 -15.4°
Maximum altitude 17:27:02 42° 64° (ENE) 1,099 4.3 -16.1°
Drops below altitude 10° 17:31:51 10° 355° (N) 2,335 6.5 -16.9°
Sets 17:34:15 0° 349° (N) 3,264 7.3 -17.2°
